カタログに戻る

THOR ABLESTAR R/B

運用中LEO
NORAD 447·ROCKET BODY·🇺🇸 United States

打ち上げ Oct 31, 1962 から Cape Canaveral Space Force Station

Loading…

次のパス (今後24時間)

TLE

最新Source: Space-Track

元期: Sep 7, 2026, 07:06 UTC

1 00447U 62060B   26250.29625241 -.00000111  00000-0  31299-4 0  9997
2 00447  50.1284 221.6897 0065759  64.3095  75.7058 13.39176948123077

AllMySatでTHOR ABLESTAR R/Bをリアルタイム追跡

Download on the App Store